Time,TemperatureF,DewpointF,PressureIn,WindDirection,WindDirectionDegrees,WindSpeedMPH,WindSpeedGustMPH,Humidity,HourlyPrecipIn,Conditions,Clouds,dailyrainin,SoftwareType,DateUTC
2013-08-05 00:01:00,76.5,75.6,29.99,SW,228,0.0,0.0,97,0.00,,,0.00,WeatherTracker,2013-08-05 05:01:00,
2013-08-05 00:10:00,76.5,75.6,29.99,SW,228,0.0,0.0,97,0.00,,,0.00,WeatherTracker,2013-08-05 05:10:00,
2013-08-05 00:15:00,76.4,75.5,29.99,SW,228,0.0,0.0,97,0.00,,,0.00,WeatherTracker,2013-08-05 05:15:00,
2013-08-05 00:25:00,76.4,75.5,29.99,SW,228,0.0,0.0,97,0.00,,,0.00,WeatherTracker,2013-08-05 05:25:00,
2013-08-05 00:35:00,76.3,75.4,29.99,SW,228,0.0,0.0,97,0.00,,,0.00,WeatherTracker,2013-08-05 05:35:00,
2013-08-05 00:40:00,76.3,75.4,29.99,SW,228,0.0,0.0,97,0.00,,,0.00,WeatherTracker,2013-08-05 05:40:00,
2013-08-05 00:45:00,76.2,75.3,29.99,SW,228,0.0,0.0,97,0.00,,,0.00,WeatherTracker,2013-08-05 05:45:00,
2013-08-05 00:55:00,76.2,75.3,29.99,SW,228,0.0,0.0,97,0.00,,,0.00,WeatherTracker,2013-08-05 05:55:00,
2013-08-05 01:00:00,76.1,75.2,29.98,SW,228,0.0,0.0,97,0.00,,,0.00,WeatherTracker,2013-08-05 06:00:00,
2013-08-05 01:10:00,75.9,75.0,29.99,SW,228,0.0,0.0,97,0.00,,,0.00,WeatherTracker,2013-08-05 06:10:00,
2013-08-05 01:15:00,75.8,74.9,29.98,SW,228,0.0,0.0,97,0.00,,,0.00,WeatherTracker,2013-08-05 06:15:00,
2013-08-05 01:25:00,75.7,74.8,29.98,SW,228,0.0,0.0,97,0.00,,,0.00,WeatherTracker,2013-08-05 06:25:00,
2013-08-05 01:35:00,75.5,74.6,29.98,SW,228,0.0,0.0,97,0.00,,,0.00,WeatherTracker,2013-08-05 06:35:00,
2013-08-05 01:40:00,75.5,74.6,29.98,SW,228,0.0,0.0,97,0.00,,,0.00,WeatherTracker,2013-08-05 06:40:00,
2013-08-05 01:50:00,75.3,74.4,29.98,SW,228,0.0,0.0,97,0.00,,,0.00,WeatherTracker,2013-08-05 06:50:00,
2013-08-05 02:00:00,75.2,74.3,29.98,SW,228,0.0,0.0,97,0.00,,,0.00,WeatherTracker,2013-08-05 07:00:00,
2013-08-05 02:10:00,75.1,74.2,29.97,SW,228,0.0,0.0,97,0.00,,,0.00,WeatherTracker,2013-08-05 07:10:00,
2013-08-05 02:15:00,75.0,74.1,29.97,SW,228,0.0,0.0,97,0.00,,,0.00,WeatherTracker,2013-08-05 07:15:00,
2013-08-05 02:20:00,74.9,74.0,29.97,SW,228,0.0,0.0,97,0.00,,,0.00,WeatherTracker,2013-08-05 07:20:00,
2013-08-05 02:25:00,74.9,74.0,29.97,SW,228,0.0,0.0,97,0.00,,,0.00,WeatherTracker,2013-08-05 07:25:00,
2013-08-05 02:29:00,74.8,73.9,29.97,SW,228,0.0,0.0,97,0.00,,,0.00,WeatherTracker,2013-08-05 07:29:00,
2013-08-05 02:39:00,74.8,73.9,29.97,SW,228,0.0,0.0,97,0.00,,,0.00,WeatherTracker,2013-08-05 07:39:00,
2013-08-05 02:50:00,74.7,73.8,29.97,SW,228,0.0,0.0,97,0.00,,,0.00,WeatherTracker,2013-08-05 07:50:00,
2013-08-05 02:55:00,74.7,73.8,29.96,SW,228,0.0,0.0,97,0.00,,,0.00,WeatherTracker,2013-08-05 07:55:00,
2013-08-05 03:00:00,74.7,73.8,29.96,SW,228,0.0,0.0,97,0.00,,,0.00,WeatherTracker,2013-08-05 08:00:00,
2013-08-05 03:05:00,74.6,73.7,29.96,SW,228,0.0,0.0,97,0.00,,,0.00,WeatherTracker,2013-08-05 08:05:00,
2013-08-05 03:10:00,74.5,73.6,29.96,SW,228,0.0,0.0,97,0.00,,,0.00,WeatherTracker,2013-08-05 08:10:00,
2013-08-05 03:20:00,74.4,73.5,29.96,SW,228,0.0,0.0,97,0.00,,,0.00,WeatherTracker,2013-08-05 08:20:00,
2013-08-05 03:25:00,74.3,73.4,29.96,SW,228,0.0,0.0,97,0.00,,,0.00,WeatherTracker,2013-08-05 08:25:00,
2013-08-05 03:35:00,74.1,73.2,29.96,SW,228,0.0,0.0,97,0.00,,,0.00,WeatherTracker,2013-08-05 08:35:00,
2013-08-05 03:40:00,74.0,73.1,29.96,SW,228,0.0,0.0,97,0.00,,,0.00,WeatherTracker,2013-08-05 08:40:00,
2013-08-05 03:45:00,73.9,73.0,29.96,SW,228,0.0,0.0,97,0.00,,,0.00,WeatherTracker,2013-08-05 08:45:00,
2013-08-05 03:55:00,73.9,73.0,29.96,SW,228,0.0,0.0,97,0.00,,,0.00,WeatherTracker,2013-08-05 08:55:00,
2013-08-05 04:00:00,73.8,72.9,29.96,SW,228,0.0,0.0,97,0.00,,,0.00,WeatherTracker,2013-08-05 09:00:00,
2013-08-05 04:15:00,73.6,72.7,29.96,SW,228,0.0,0.0,97,0.00,,,0.00,WeatherTracker,2013-08-05 09:15:00,
2013-08-05 04:20:00,73.6,72.7,29.96,SW,228,0.0,0.0,97,0.00,,,0.00,WeatherTracker,2013-08-05 09:20:00,
2013-08-05 04:25:00,73.5,72.6,29.96,SW,228,0.0,0.0,97,0.00,,,0.00,WeatherTracker,2013-08-05 09:25:00,
2013-08-05 04:34:00,73.4,72.5,29.96,SW,228,0.0,0.0,97,0.00,,,0.00,WeatherTracker,2013-08-05 09:34:00,
2013-08-05 04:45:00,73.4,72.5,29.97,SW,228,0.0,0.0,97,0.01,,,0.01,WeatherTracker,2013-08-05 09:45:00,
2013-08-05 04:55:00,73.5,72.6,29.97,SW,228,0.0,0.0,97,0.01,,,0.01,WeatherTracker,2013-08-05 09:55:00,
2013-08-05 05:05:00,73.8,72.9,29.97,SW,228,0.0,0.0,97,0.01,,,0.01,WeatherTracker,2013-08-05 10:05:00,
2013-08-05 05:10:00,73.9,73.0,29.97,SW,228,0.0,0.0,97,0.01,,,0.01,WeatherTracker,2013-08-05 10:10:00,
2013-08-05 05:20:00,73.9,73.0,29.97,SW,228,0.0,0.0,97,0.01,,,0.01,WeatherTracker,2013-08-05 10:20:00,
2013-08-05 05:30:00,73.7,72.8,29.97,SW,228,0.0,0.0,97,0.01,,,0.01,WeatherTracker,2013-08-05 10:30:00,
2013-08-05 05:46:00,73.7,72.8,29.98,SW,228,0.0,0.0,97,0.00,,,0.01,WeatherTracker,2013-08-05 10:46:00,
2013-08-05 05:55:00,73.7,72.8,29.98,SW,228,0.0,0.0,97,0.00,,,0.01,WeatherTracker,2013-08-05 10:55:00,
2013-08-05 06:00:00,73.7,72.8,29.98,SW,228,0.0,0.0,97,0.00,,,0.01,WeatherTracker,2013-08-05 11:00:00,
2013-08-05 06:10:00,73.7,72.8,29.98,SW,228,0.0,0.0,97,0.00,,,0.01,WeatherTracker,2013-08-05 11:10:00,
2013-08-05 06:20:00,73.9,73.0,29.98,SW,228,0.0,0.0,97,0.00,,,0.01,WeatherTracker,2013-08-05 11:20:00,
2013-08-05 06:25:00,73.9,73.0,29.99,SW,228,0.0,0.0,97,0.00,,,0.01,WeatherTracker,2013-08-05 11:25:00,
2013-08-05 06:35:00,74.0,73.1,29.99,SW,228,0.0,0.0,97,0.00,,,0.01,WeatherTracker,2013-08-05 11:35:00,
2013-08-05 06:39:00,74.2,73.3,29.99,NW,325,0.0,0.0,97,0.00,,,0.01,WeatherTracker,2013-08-05 11:39:00,
2013-08-05 06:50:00,74.4,73.8,29.99,NW,325,0.0,0.0,98,0.00,,,0.01,WeatherTracker,2013-08-05 11:50:00,
2013-08-05 07:05:00,74.7,74.1,30.00,NNW,327,0.0,0.0,98,0.00,,,0.01,WeatherTracker,2013-08-05 12:05:00,
2013-08-05 07:10:00,74.8,74.2,30.00,NNW,342,0.0,0.0,98,0.00,,,0.01,WeatherTracker,2013-08-05 12:10:00,
2013-08-05 07:15:00,74.7,74.1,30.00,NNE,15,0.0,3.0,98,0.00,,,0.01,WeatherTracker,2013-08-05 12:15:00,
2013-08-05 07:25:00,74.6,74.0,30.00,NNE,15,0.0,0.0,98,0.00,,,0.01,WeatherTracker,2013-08-05 12:25:00,
2013-08-05 07:30:00,74.8,74.2,30.00,NNE,15,0.0,0.0,98,0.00,,,0.01,WeatherTracker,2013-08-05 12:30:00,
2013-08-05 07:39:00,75.2,74.6,30.00,NNE,27,0.0,0.0,98,0.00,,,0.01,WeatherTracker,2013-08-05 12:39:00,
2013-08-05 07:44:00,75.5,74.9,30.00,NNE,27,0.0,0.0,98,0.00,,,0.01,WeatherTracker,2013-08-05 12:44:00,
2013-08-05 07:54:00,76.2,75.6,30.01,NNE,27,0.0,0.0,98,0.00,,,0.01,WeatherTracker,2013-08-05 12:54:00,
2013-08-05 08:00:00,76.1,75.2,30.01,NNE,27,0.0,0.0,97,0.00,,,0.01,WeatherTracker,2013-08-05 13:00:00,
2013-08-05 08:05:00,76.1,75.2,30.01,NNE,27,0.0,0.0,97,0.00,,,0.01,WeatherTracker,2013-08-05 13:05:00,
2013-08-05 08:10:00,76.5,75.6,30.01,NNE,27,0.0,0.0,97,0.00,,,0.01,WeatherTracker,2013-08-05 13:10:00,
2013-08-05 08:20:00,76.5,75.6,30.01,NNE,27,0.0,0.0,97,0.00,,,0.01,WeatherTracker,2013-08-05 13:20:00,
2013-08-05 08:30:00,77.5,75.9,30.01,NNE,27,0.0,0.0,95,0.00,,,0.01,WeatherTracker,2013-08-05 13:30:00,
2013-08-05 08:40:00,78.9,77.0,30.01,NE,42,0.0,0.0,94,0.00,,,0.01,WeatherTracker,2013-08-05 13:40:00,
2013-08-05 08:50:00,80.0,76.5,30.01,NE,42,0.0,0.0,89,0.00,,,0.01,WeatherTracker,2013-08-05 13:50:00,
2013-08-05 08:55:00,80.8,76.9,30.01,NNE,28,0.0,0.0,88,0.00,,,0.01,WeatherTracker,2013-08-05 13:55:00,
2013-08-05 09:00:00,81.1,76.5,30.01,NNE,29,0.0,0.0,86,0.00,,,0.01,WeatherTracker,2013-08-05 14:00:00,
2013-08-05 09:06:00,81.3,76.3,30.01,NNE,30,0.0,0.0,85,0.00,,,0.01,WeatherTracker,2013-08-05 14:06:00,
2013-08-05 09:15:00,81.6,77.0,30.01,NNE,30,0.0,0.0,86,0.00,,,0.01,WeatherTracker,2013-08-05 14:15:00,
2013-08-05 09:20:00,82.0,77.0,30.02,NE,34,0.0,0.0,85,0.00,,,0.01,WeatherTracker,2013-08-05 14:20:00,
2013-08-05 09:30:00,82.7,75.9,30.02,NE,34,0.0,0.0,80,0.00,,,0.01,WeatherTracker,2013-08-05 14:30:00,
2013-08-05 09:40:00,83.0,77.3,30.02,NE,34,0.0,0.0,83,0.00,,,0.01,WeatherTracker,2013-08-05 14:40:00,
2013-08-05 09:44:00,83.2,76.4,30.02,NE,45,0.0,0.0,80,0.00,,,0.01,WeatherTracker,2013-08-05 14:44:00,
2013-08-05 09:55:00,83.9,77.4,30.02,NE,44,0.0,0.0,81,0.00,,,0.01,WeatherTracker,2013-08-05 14:55:00,
2013-08-05 10:00:00,84.1,77.6,30.02,NE,44,0.0,0.0,81,0.00,,,0.01,WeatherTracker,2013-08-05 15:00:00,
2013-08-05 10:10:00,84.7,77.4,30.02,NE,44,0.0,0.0,79,0.00,,,0.01,WeatherTracker,2013-08-05 15:10:00,
2013-08-05 10:20:00,85.3,78.0,30.02,NE,44,0.0,0.0,79,0.00,,,0.01,WeatherTracker,2013-08-05 15:20:00,
2013-08-05 10:30:00,85.8,76.5,30.02,NNE,15,0.0,0.0,74,0.00,,,0.01,WeatherTracker,2013-08-05 15:30:00,
2013-08-05 10:35:00,85.9,77.4,30.02,NNE,15,0.0,0.0,76,0.00,,,0.01,WeatherTracker,2013-08-05 15:35:00,
2013-08-05 10:50:00,86.5,77.2,30.02,NW,324,0.0,5.0,74,0.00,,,0.01,WeatherTracker,2013-08-05 15:50:00,
2013-08-05 11:05:00,87.0,77.7,30.02,NNW,347,0.0,3.0,74,0.00,,,0.01,WeatherTracker,2013-08-05 16:05:00,
2013-08-05 11:15:00,87.3,78.0,30.01,NE,36,8.0,8.0,74,0.00,,,0.01,WeatherTracker,2013-08-05 16:15:00,
2013-08-05 11:25:00,87.2,76.2,30.01,NNE,12,0.0,8.0,70,0.00,,,0.01,WeatherTracker,2013-08-05 16:25:00,
2013-08-05 11:30:00,87.5,77.7,30.01,NW,321,0.0,4.0,73,0.00,,,0.01,WeatherTracker,2013-08-05 16:30:00,
2013-08-05 11:34:00,88.0,77.4,30.01,NW,313,3.0,5.0,71,0.00,,,0.01,WeatherTracker,2013-08-05 16:34:00,
2013-08-05 11:40:00,88.0,77.4,30.01,NW,324,0.0,6.0,71,0.00,,,0.01,WeatherTracker,2013-08-05 16:40:00,
2013-08-05 11:50:00,88.2,77.6,30.01,NNW,348,0.0,7.0,71,0.00,,,0.01,WeatherTracker,2013-08-05 16:50:00,
2013-08-05 11:59:00,88.4,77.8,30.00,NNW,343,0.0,5.0,71,0.00,,,0.01,WeatherTracker,2013-08-05 16:59:00,
2013-08-05 12:05:00,88.6,77.1,30.00,North,10,2.0,5.0,69,0.00,,,0.01,WeatherTracker,2013-08-05 17:05:00,
2013-08-05 12:15:00,88.6,78.4,30.00,NNW,348,0.0,3.0,72,0.00,,,0.01,WeatherTracker,2013-08-05 17:15:00,
2013-08-05 12:20:00,88.7,77.2,29.99,NNE,22,0.0,3.0,69,0.00,,,0.01,WeatherTracker,2013-08-05 17:20:00,
2013-08-05 12:30:00,88.9,77.8,29.99,North,5,0.0,3.0,70,0.00,,,0.01,WeatherTracker,2013-08-05 17:30:00,
2013-08-05 12:40:00,89.4,77.9,29.99,North,5,3.0,7.0,69,0.00,,,0.01,WeatherTracker,2013-08-05 17:40:00,
2013-08-05 12:50:00,89.9,76.5,29.98,North,5,0.0,5.0,65,0.00,,,0.01,WeatherTracker,2013-08-05 17:50:00,
2013-08-05 13:00:00,90.3,78.3,29.98,North,360,1.0,6.0,68,0.00,,,0.01,WeatherTracker,2013-08-05 18:00:00,
2013-08-05 13:10:00,90.2,78.2,29.98,NNW,339,0.0,5.0,68,0.00,,,0.01,WeatherTracker,2013-08-05 18:10:00,
2013-08-05 13:20:00,89.2,77.2,29.98,NNW,348,0.0,8.0,68,0.00,,,0.01,WeatherTracker,2013-08-05 18:20:00,
2013-08-05 13:25:00,89.6,75.8,29.97,North,360,1.0,6.0,64,0.00,,,0.01,WeatherTracker,2013-08-05 18:25:00,
2013-08-05 13:30:00,90.0,77.1,29.98,NE,50,4.0,8.0,66,0.00,,,0.01,WeatherTracker,2013-08-05 18:30:00,
2013-08-05 13:35:00,90.1,76.7,29.97,NW,317,0.0,13.0,65,0.00,,,0.01,WeatherTracker,2013-08-05 18:35:00,
2013-08-05 13:45:00,90.7,76.8,29.97,NNW,333,0.0,6.0,64,0.00,,,0.01,WeatherTracker,2013-08-05 18:45:00,
2013-08-05 13:55:00,90.7,78.2,29.97,NNE,24,0.0,7.0,67,0.00,,,0.01,WeatherTracker,2013-08-05 18:55:00,
2013-08-05 14:05:00,89.9,76.5,29.96,NE,42,1.0,8.0,65,0.00,,,0.01,WeatherTracker,2013-08-05 19:05:00,
2013-08-05 14:10:00,89.9,77.4,29.96,NNE,18,0.0,8.0,67,0.00,,,0.01,WeatherTracker,2013-08-05 19:10:00,
2013-08-05 14:15:00,89.8,77.8,29.96,NNE,20,5.0,8.0,68,0.00,,,0.01,WeatherTracker,2013-08-05 19:15:00,
2013-08-05 14:20:00,89.8,78.7,29.96,North,360,4.0,8.0,70,0.00,,,0.01,WeatherTracker,2013-08-05 19:20:00,
2013-08-05 14:30:00,90.4,77.5,29.96,NNW,348,0.0,6.0,66,0.00,,,0.01,WeatherTracker,2013-08-05 19:30:00,
2013-08-05 14:50:00,89.7,76.8,29.95,North,9,0.0,6.0,66,0.00,,,0.01,WeatherTracker,2013-08-05 19:50:00,
2013-08-05 15:00:00,89.7,77.2,29.95,North,360,0.0,8.0,67,0.00,,,0.01,WeatherTracker,2013-08-05 20:00:00,
2013-08-05 15:10:00,90.1,76.2,29.95,NE,41,6.0,6.0,64,0.00,,,0.01,WeatherTracker,2013-08-05 20:10:00,
2013-08-05 15:15:00,90.1,74.8,29.95,NE,36,6.0,7.0,61,0.00,,,0.01,WeatherTracker,2013-08-05 20:15:00,
2013-08-05 15:20:00,89.9,75.1,29.95,NNE,24,0.0,10.0,62,0.00,,,0.01,WeatherTracker,2013-08-05 20:20:00,
2013-08-05 15:25:00,90.0,75.2,29.95,NE,36,1.0,10.0,62,0.00,,,0.01,WeatherTracker,2013-08-05 20:25:00,
2013-08-05 15:35:00,90.1,77.2,29.95,North,355,0.0,7.0,66,0.00,,,0.01,WeatherTracker,2013-08-05 20:35:00,
2013-08-05 15:45:00,90.2,75.4,29.94,NE,34,3.0,9.0,62,0.00,,,0.01,WeatherTracker,2013-08-05 20:45:00,
2013-08-05 15:50:00,89.9,75.6,29.94,ENE,60,3.0,9.0,63,0.00,,,0.01,WeatherTracker,2013-08-05 20:50:00,
2013-08-05 16:00:00,89.1,73.4,29.95,NNE,23,0.0,11.0,60,0.00,,,0.01,WeatherTracker,2013-08-05 21:00:00,
2013-08-05 16:05:00,88.6,75.3,29.95,North,5,0.0,6.0,65,0.00,,,0.01,WeatherTracker,2013-08-05 21:05:00,
2013-08-05 16:15:00,88.1,74.8,29.95,North,11,1.0,8.0,65,0.00,,,0.01,WeatherTracker,2013-08-05 21:15:00,
2013-08-05 16:25:00,88.8,75.9,29.95,North,5,0.0,8.0,66,0.00,,,0.01,WeatherTracker,2013-08-05 21:25:00,
2013-08-05 16:40:00,89.6,75.8,29.94,North,360,0.0,6.0,64,0.00,,,0.01,WeatherTracker,2013-08-05 21:40:00,
2013-08-05 16:50:00,89.3,76.9,29.94,NNE,15,0.0,8.0,67,0.00,,,0.01,WeatherTracker,2013-08-05 21:50:00,
2013-08-05 17:00:00,88.8,75.5,29.94,NNE,25,0.0,6.0,65,0.00,,,0.01,WeatherTracker,2013-08-05 22:00:00,
2013-08-05 17:05:00,88.3,75.5,29.94,NNE,15,0.0,5.0,66,0.00,,,0.01,WeatherTracker,2013-08-05 22:05:00,
2013-08-05 17:10:00,88.3,76.8,29.94,North,355,0.0,5.0,69,0.00,,,0.01,WeatherTracker,2013-08-05 22:10:00,
2013-08-05 17:15:00,88.7,76.7,29.94,North,355,0.0,0.0,68,0.00,,,0.01,WeatherTracker,2013-08-05 22:15:00,
2013-08-05 17:20:00,88.8,75.9,29.94,NNE,28,0.0,1.0,66,0.00,,,0.01,WeatherTracker,2013-08-05 22:20:00,
2013-08-05 17:25:00,88.7,74.9,29.94,NNE,31,0.0,5.0,64,0.00,,,0.01,WeatherTracker,2013-08-05 22:25:00,
2013-08-05 17:35:00,88.3,75.9,29.94,NNE,24,2.0,2.0,67,0.00,,,0.01,WeatherTracker,2013-08-05 22:35:00,
2013-08-05 17:40:00,88.0,76.5,29.94,North,9,0.0,8.0,69,0.00,,,0.01,WeatherTracker,2013-08-05 22:40:00,
2013-08-05 17:50:00,87.9,76.9,29.94,North,5,0.0,3.0,70,0.00,,,0.01,WeatherTracker,2013-08-05 22:50:00,
2013-08-05 17:55:00,87.6,76.6,29.94,NE,38,0.0,4.0,70,0.00,,,0.01,WeatherTracker,2013-08-05 22:55:00,
2013-08-05 18:05:00,87.3,76.7,29.94,North,355,0.0,3.0,71,0.00,,,0.01,WeatherTracker,2013-08-05 23:05:00,
2013-08-05 18:10:00,87.4,76.8,29.94,North,360,0.0,3.0,71,0.00,,,0.01,WeatherTracker,2013-08-05 23:10:00,
2013-08-05 18:15:00,87.4,77.7,29.95,North,5,0.0,0.0,73,0.00,,,0.01,WeatherTracker,2013-08-05 23:15:00,
2013-08-05 18:30:00,85.7,76.0,29.95,NNE,17,0.0,7.0,73,0.00,,,0.01,WeatherTracker,2013-08-05 23:30:00,
2013-08-05 18:40:00,85.2,76.8,29.96,North,351,0.0,3.0,76,0.00,,,0.01,WeatherTracker,2013-08-05 23:40:00,
2013-08-05 18:45:00,85.0,77.0,29.96,North,351,0.0,0.0,77,0.00,,,0.01,WeatherTracker,2013-08-05 23:45:00,
2013-08-05 18:50:00,84.7,76.7,29.96,North,351,0.0,0.0,77,0.00,,,0.01,WeatherTracker,2013-08-05 23:50:00,
2013-08-05 19:00:00,84.0,76.4,29.97,North,351,0.0,0.0,78,0.00,,,0.01,WeatherTracker,2013-08-06 00:00:00,
2013-08-05 19:10:00,83.4,76.2,29.97,North,351,0.0,0.0,79,0.00,,,0.01,WeatherTracker,2013-08-06 00:10:00,
2013-08-05 19:15:00,83.0,76.2,29.97,North,351,0.0,0.0,80,0.00,,,0.01,WeatherTracker,2013-08-06 00:15:00,
2013-08-05 19:30:00,82.1,76.0,29.97,North,351,0.0,0.0,82,0.00,,,0.01,WeatherTracker,2013-08-06 00:30:00,
2013-08-05 19:35:00,81.6,75.9,29.98,North,351,0.0,0.0,83,0.00,,,0.01,WeatherTracker,2013-08-06 00:35:00,
2013-08-05 19:45:00,81.2,75.9,29.97,North,351,0.0,0.0,84,0.00,,,0.01,WeatherTracker,2013-08-06 00:45:00,
2013-08-05 19:50:00,81.0,75.7,29.98,North,351,0.0,0.0,84,0.00,,,0.01,WeatherTracker,2013-08-06 00:50:00,
2013-08-05 20:00:00,80.5,75.6,29.97,North,351,0.0,0.0,85,0.00,,,0.01,WeatherTracker,2013-08-06 01:00:00,
2013-08-05 20:10:00,80.0,75.4,29.97,North,351,0.0,0.0,86,0.00,,,0.01,WeatherTracker,2013-08-06 01:10:00,
2013-08-05 20:20:00,79.5,74.9,29.97,North,351,0.0,0.0,86,0.00,,,0.01,WeatherTracker,2013-08-06 01:20:00,
2013-08-05 20:30:00,79.1,74.9,29.97,North,351,0.0,0.0,87,0.00,,,0.01,WeatherTracker,2013-08-06 01:30:00,
2013-08-05 20:40:00,78.9,74.7,29.97,North,351,0.0,0.0,87,0.00,,,0.01,WeatherTracker,2013-08-06 01:40:00,
2013-08-05 20:50:00,78.5,74.3,29.97,North,351,0.0,0.0,87,0.00,,,0.01,WeatherTracker,2013-08-06 01:50:00,
2013-08-05 20:55:00,78.2,74.0,29.97,North,351,0.0,0.0,87,0.00,,,0.01,WeatherTracker,2013-08-06 01:55:00,
2013-08-05 21:00:00,78.0,74.1,29.97,North,351,0.0,0.0,88,0.00,,,0.01,WeatherTracker,2013-08-06 02:00:00,
2013-08-05 21:10:00,77.6,73.4,29.97,North,351,0.0,0.0,87,0.00,,,0.01,WeatherTracker,2013-08-06 02:10:00,
2013-08-05 21:15:00,77.5,73.3,29.97,North,351,0.0,0.0,87,0.00,,,0.01,WeatherTracker,2013-08-06 02:15:00,
2013-08-05 21:20:00,77.4,73.6,29.97,North,351,0.0,0.0,88,0.00,,,0.01,WeatherTracker,2013-08-06 02:20:00,
2013-08-05 21:25:00,77.3,73.1,29.97,North,351,0.0,0.0,87,0.00,,,0.01,WeatherTracker,2013-08-06 02:25:00,
2013-08-05 21:35:00,77.1,73.3,29.97,North,351,0.0,0.0,88,0.00,,,0.01,WeatherTracker,2013-08-06 02:35:00,
2013-08-05 21:40:00,76.9,73.1,29.97,North,351,0.0,0.0,88,0.00,,,0.01,WeatherTracker,2013-08-06 02:40:00,
2013-08-05 21:45:00,76.7,72.9,29.97,North,351,0.0,0.0,88,0.00,,,0.01,WeatherTracker,2013-08-06 02:45:00,
2013-08-05 21:55:00,76.4,72.6,29.97,North,351,0.0,0.0,88,0.00,,,0.01,WeatherTracker,2013-08-06 02:55:00,
2013-08-05 22:00:00,76.3,72.5,29.97,North,351,0.0,0.0,88,0.00,,,0.01,WeatherTracker,2013-08-06 03:00:00,
2013-08-05 22:10:00,76.0,72.8,29.97,North,351,0.0,0.0,90,0.00,,,0.01,WeatherTracker,2013-08-06 03:10:00,
2013-08-05 22:25:00,75.6,72.8,29.96,North,351,0.0,0.0,91,0.00,,,0.01,WeatherTracker,2013-08-06 03:25:00,
2013-08-05 22:30:00,75.5,72.7,29.96,North,351,0.0,0.0,91,0.00,,,0.01,WeatherTracker,2013-08-06 03:30:00,
2013-08-05 22:35:00,75.4,72.9,29.96,North,351,0.0,0.0,92,0.00,,,0.01,WeatherTracker,2013-08-06 03:35:00,
2013-08-05 22:45:00,75.2,72.7,29.96,North,351,0.0,0.0,92,0.00,,,0.01,WeatherTracker,2013-08-06 03:45:00,
2013-08-05 22:55:00,74.9,72.4,29.95,North,351,0.0,0.0,92,0.00,,,0.01,WeatherTracker,2013-08-06 03:55:00,
2013-08-05 23:00:00,74.8,72.3,29.95,North,351,0.0,0.0,92,0.00,,,0.01,WeatherTracker,2013-08-06 04:00:00,
2013-08-05 23:05:00,74.7,72.5,29.95,North,351,0.0,0.0,93,0.00,,,0.01,WeatherTracker,2013-08-06 04:05:00,
2013-08-05 23:10:00,74.6,72.4,29.95,North,351,0.0,0.0,93,0.00,,,0.01,WeatherTracker,2013-08-06 04:10:00,
2013-08-05 23:15:00,74.5,72.3,29.95,North,351,0.0,0.0,93,0.00,,,0.01,WeatherTracker,2013-08-06 04:15:00,
2013-08-05 23:20:00,74.5,72.3,29.95,North,351,0.0,0.0,93,0.00,,,0.01,WeatherTracker,2013-08-06 04:20:00,
2013-08-05 23:25:00,74.4,72.2,29.95,North,351,0.0,0.0,93,0.00,,,0.01,WeatherTracker,2013-08-06 04:25:00,
2013-08-05 23:35:00,74.3,72.1,29.96,North,351,0.0,0.0,93,0.00,,,0.01,WeatherTracker,2013-08-06 04:35:00,
2013-08-05 23:40:00,74.2,72.0,29.95,North,351,0.0,0.0,93,0.00,,,0.01,WeatherTracker,2013-08-06 04:40:00,
2013-08-05 23:50:00,74.0,71.8,29.96,North,351,0.0,0.0,93,0.00,,,0.01,WeatherTracker,2013-08-06 04:50:00,
2013-08-05 23:55:00,73.9,72.1,29.96,North,351,0.0,0.0,94,0.00,,,0.01,WeatherTracker,2013-08-06 04:55:00,